Location: Township of Marena
(38.1747°N, 99.6798°W)
Time: 02:07:54
(UTC+00:00)

MOS 1 Rocket - Pass Details

Date: 26 October 2020
Orbit: 615 x 829 km, 97.4° (Epoch: 24 November)

Event Time Altitude Azimuth Distance (km) Brightness Sun altitude
Rises 00:42:29 0° 25° (NNE) 3,038 6.3 -11.6°
Reaches altitude 10° 00:44:58 10° 37° (NE) 2,153 5.4 -12.0°
Maximum altitude 00:49:00 28° 96° (E) 1,342 4.2 -12.8°
Drops below altitude 10° 00:53:14 10° 155° (SSE) 2,258 5.7 -13.7°
Sets 00:55:53 0° 166° (SSE) 3,215 6.6 -14.2°
